Regional Weather Roundup
Issued by NWS

Home | Current Version | Previous Version | Graphics & Text | Print | Product List | Glossary On
Versions: 1 2 3 4 5 6 7 8 9 10 11 12 13 14 15 16 17 18 19 20 21 22 23 24 25 26 27 28 29 30 31 32 33 34 35 36 37 38 39 40 41 42 43 44 45 46 47 48 49 50
000
ASUS43 KMKX 111811
RWRWI

WISCONSIN REGIONAL WEATHER ROUNDUP
NATIONAL WEATHER SERVICE MILWAUKEE/SULLIVAN WI
100 PM CDT FRI JUL 11 2014

NOTE: "FAIR" INDICATES FEW OR NO CLOUDS BELOW 12,000 FEET WITH NO
SIGNIFICANT WEATHER AND/OR OBSTRUCTIONS TO VISIBILITY.

WIZ001-002-006>008-014>016-023>028-111900-
NORTHWEST WISCONSIN

CITY           SKY/WX    TMP DP  RH WIND       PRES   REMARKS
SUPERIOR ARPT  CLOUDY    70  66  88 SW16G22   29.92F
6HR MIN TEMP:  57; 6HR MAX TEMP:  70; 6HR PCP:  0.01;

ASHLAND        CLOUDY    71  64  78 SW12G21   29.96S
6HR MIN TEMP:  63; 6HR MAX TEMP:  73; 6HR PCP:  0.18;

HAYWARD        CLOUDY    71  64  78 S15G25    29.99S
6HR MIN TEMP:  63; 6HR MAX TEMP:  71; 6HR PCP:  0.30;

SIREN          CLOUDY    74  64  72 SW12G21   29.97S
6HR MIN TEMP:  64; 6HR MAX TEMP:  74; 6HR PCP:  0.22;

RICE LAKE      CLOUDY    72  63  72 S17       30.02F
6HR MIN TEMP:  63; 6HR MAX TEMP:  72;

LADYSMITH      CLOUDY    72  62  71 S16G29    30.05F
6HR MIN TEMP:  64; 6HR MAX TEMP:  72; 6HR PCP:  0.09;

EAU CLAIRE     CLOUDY    72  62  71 S15G23    30.01F
6HR MIN TEMP:  66; 6HR MAX TEMP:  72; 6HR PCP: TRACE;

MENOMONIE      MOCLDY    73  63  71 SE12G20   30.00F
6HR MIN TEMP:  64; 6HR MAX TEMP:  73; 6HR PCP:  0.02;

NEW RICHMOND   MOSUNNY   74  63  67 S13G20    29.99S
6HR MIN TEMP:  64; 6HR MAX TEMP:  74; 6HR PCP:  0.16;

OSCEOLA        MOSUNNY   76  66  71 S15       29.99F
6HR MIN TEMP:  66; 6HR MAX TEMP:  76; 6HR PCP:  0.11;

$$

WIZ003>005-009-010-017-018-111900-
NORTH CENTRAL WISCONSIN

CITY           SKY/WX    TMP DP  RH WIND       PRES   REMARKS
WOODRUFF       PTSUNNY   76  62  61 SW17G23   30.05S
6HR MIN TEMP:  64; 6HR MAX TEMP:  77;

RHINELANDER    MOSUNNY   74  58  57 SW20G29   30.08F
6HR MIN TEMP:  64; 6HR MAX TEMP:  74; 6HR PCP: TRACE;

EAGLE RIVER    MOSUNNY   72  56  56 SW12G25   30.06S
6HR MIN TEMP:  62; 6HR MAX TEMP:  73;

LAND O LAKES   PTSUNNY   74  57  54 SW14G25   30.04F
6HR MIN TEMP:  62; 6HR MAX TEMP:  75;

PHILLIPS       CLOUDY    70  61  73 SW15G22   30.04F
6HR MIN TEMP:  62; 6HR MAX TEMP:  71; 6HR PCP:  0.04;

TOMAHAWK       CLOUDY    71  59  65 S8G17     30.08F
6HR MIN TEMP:  62; 6HR MAX TEMP:  73;

MEDFORD        PTSUNNY   71  59  65 S22G31    30.08F
6HR MIN TEMP:  62; 6HR MAX TEMP:  71;

MERRILL        CLOUDY    71  59  67 SW13G22   30.09F
6HR MIN TEMP:  65; 6HR MAX TEMP:  71;

$$

WIZ029-030-035-036-043>047-111900-
CENTRAL WISCONSIN

CITY           SKY/WX    TMP DP  RH WIND       PRES   REMARKS
WAUSAU         CLOUDY    74  57  55 S16G26    30.09F
6HR MIN TEMP:  66; 6HR MAX TEMP:  74; 6HR PCP: TRACE;

MOSINEE        PTSUNNY   72  59  64 S17G23    30.13F
MARSHFIELD     CLOUDY    73  59  61 SW16G24   30.09F
6HR MIN TEMP:  63; 6HR MAX TEMP:  73; 6HR PCP: TRACE;

STEVENS POINT  CLOUDY    73  55  53 S17G25    30.13S
6HR MIN TEMP:  64; 6HR MAX TEMP:  74;

WAUPACA        CLOUDY    77  60  56 SW13G18   30.13F
6HR MIN TEMP:  64; 6HR MAX TEMP:  80;

WAUTOMA        CLOUDY    74  58  57 S10G21    30.13F
6HR MIN TEMP:  62; 6HR MAX TEMP:  77;

WISC RAPIDS    CLOUDY    75  56  51 SW18G25   30.12F
6HR MIN TEMP:  65; 6HR MAX TEMP:  75; 6HR PCP: TRACE;

CAMP DOUGLAS   CLOUDY    70  61  73 S14G22    30.09F
                                      6HR PCP: TRACE;

$$

WIZ011>013-019>022-031-037>040-048>050-111900-
NORTHEAST WISCONSIN

CITY           SKY/WX    TMP DP  RH WIND       PRES   REMARKS
ANTIGO         CLOUDY    69  59  69 SW17G29   30.12F
6HR MIN TEMP:  60; 6HR MAX TEMP:  70;

STURGEON BAY   CLOUDY    72  61  68 SE9       30.14S
6HR MIN TEMP:  61; 6HR MAX TEMP:  73;

GREEN BAY      CLOUDY    78  59  51 S16G25    30.13S
6HR MIN TEMP:  63; 6HR MAX TEMP:  78;

MANITOWOC      CLOUDY    71  59  65 S13       30.15F
6HR MIN TEMP:  59; 6HR MAX TEMP:  73;

APPLETON       PTSUNNY   77  57  50 SW17G25   30.15S
CLINTONVILLE   CLOUDY    77  55  47 SW15G24   30.12S
OSHKOSH        CLOUDY    77  59  53 SW16G28   30.13F
6HR MIN TEMP:  64; 6HR MAX TEMP:  78;

$$

WIZ032>034-041-042-053>061-111900-
SOUTHWEST WISCONSIN

CITY           SKY/WX    TMP DP  RH WIND       PRES   REMARKS
LA CROSSE      LGT RAIN  69  62  78 S10       30.05F
6HR MIN TEMP:  67; 6HR MAX TEMP:  71; 6HR PCP:  0.06;

SPARTA         LGT RAIN  67  57  68 S16G22    30.07F
6HR MIN TEMP:  66; 6HR MAX TEMP:  68;

VIROQUA        FAIR      66  59  77 SE8       30.10F
6HR MIN TEMP:  64; 6HR MAX TEMP:  66;

BOSCOBEL       CLOUDY    72  60  66 VRB3      30.11F
6HR MIN TEMP:  67; 6HR MAX TEMP:  72; 6HR PCP:  0.01;

PRAIRIE DU CHI CLOUDY    69  58  66 E12       30.06F
6HR MIN TEMP:  67; 6HR MAX TEMP:  70;

PLATTEVILLE    FAIR      70  60  70 SE12      30.15F
6HR MIN TEMP:  63; 6HR MAX TEMP:  71;

$$

WIZ056-057-062-063-064-067-068-111900-
SOUTH CENTRAL WISCONSIN

CITY           SKY/WX    TMP DP  RH WIND       PRES   REMARKS
BARABOO/DELLS  LGT RAIN  68  59  72 S10       30.14F
6HR MIN TEMP:  66; 6HR MAX TEMP:  74;

LONE ROCK      LGT RAIN  73  63  70 E6        30.14F
6HR MIN TEMP:  68; 6HR MAX TEMP:  75; 6HR PCP:  0.01;

WATERTOWN      PTSUNNY   77  56  47 SW16      30.17F
6HR MIN TEMP:  62; 6HR MAX TEMP:  78;

MADISON        LGT RAIN  74  56  53 S10       30.17F
6HR MIN TEMP:  66; 6HR MAX TEMP:  77; 6HR PCP: TRACE;

MIDDLETON      FAIR      73  54  52 S9G16     30.16F
6HR MIN TEMP:  67; 6HR MAX TEMP:  77;

MONROE         CLOUDY    72  59  64 SE8       30.17F
JANESVILLE     CLOUDY    75  55  50 SW9       30.18S
$$

WIZ051-052-058>065-066-070>072-111900-
SOUTHEAST WISCONSIN

CITY           SKY/WX    TMP DP  RH WIND       PRES   REMARKS
MILWAUKEE      PTSUNNY   77  58  51 S10       30.18F
6HR MIN TEMP:  64; 6HR MAX TEMP:  80;

WAUKESHA       PTSUNNY   75  54  46 S13       30.20S
MILWAUKEE/TIMM SUNNY     79  52  38 SW10G18   30.18F
RACINE         PTSUNNY   78  57  48 S14       30.20F
6HR MIN TEMP:  65; 6HR MAX TEMP:  78;

BURLINGTON     PTSUNNY   77  58  51 SW8       30.18F
6HR MIN TEMP:  56; 6HR MAX TEMP:  78;

KENOSHA        PTSUNNY   79  56  45 S10       30.19S HX  80
6HR MIN TEMP:  61; 6HR MAX TEMP:  80;

FOND DU LAC    CLOUDY    77  58  51 SW13G24   30.14F
6HR MIN TEMP:  64; 6HR MAX TEMP:  78;

SHEBOYGAN      CLOUDY    77  55  46 SW16      30.15F
6HR MIN TEMP:  62; 6HR MAX TEMP:  79;

WEST BEND      CLOUDY    77  52  41 S14       30.17F
JUNEAU         LGT RAIN  74  40  29 S12       30.18F
6HR MIN TEMP:  63; 6HR MAX TEMP:  76;

$$

LSZ147-162-111900-
LAKE SUPERIOR

STATION/POSITION TIME  TEMP    WIND        PRES    WAVE
                       AIR SEA DIR/SP/G            HT/PER
                 (UTC) (F)     (DEG/KT/KT) (MB)    (FT/S)
W MID LAKE BUOY  1750   46 38  180/  8/ 10 1014.2F   1/ 4
PORT WING        1700   70     210/ 13/ 21 1013.5S
SAXON HARBOR     1740          210/ 13/ 20 1014.2S
$$

LMZ867-665-643>646-111900-
LAKE MICHIGAN

STATION/POSITION TIME  TEMP    WIND        PRES    WAVE
                       AIR SEA DIR/SP/G            HT/PER
                 (UTC) (F)     (DEG/KT/KT) (MB)    (FT/S)
N MID LAKE BUOY  1750   59 53  210/ 17/ 21 1020.0R   3/ 4
NORTHPORT PIER   1700   66     150/ 11/ 14 1019.6F
KEWAUNEE LAKESHO 1700   54     180/ 13/ 14 1021.4F
SHEBOYGAN LAKESH 1800   64     180/ 20/ 21 1021.2F
PORT WASHINGTON  1700   69     190/  7/ 10 1022.7R
MILWAUKEE LAKESH 1700   63     150/ 14/ 16   N/A
S MID LAKE BUOY  1750   62 60  170/  6/  6 1023.0F   1
KENOSHA   LAKESH 1800   67     160/  8/ 10   N/A
$$

TC  - TEMPERATURE IN CELSIUS
VSB - VISIBILITY IN STATUTE MILES
WCI - WIND CHILL INDEX
HX  - HEAT INDEX



USA.gov is the U.S. government's official web portal to all federal, state and local government web resources and services.